Location: Township of South Roscoe
(37.9570°N, 100.1180°W)
Time: 04:56:07
(UTC+00:00)

NOAA 15 - Pass Details

Date: 30 June 2022
Orbit: 796 x 812 km, 98.6° (Epoch: 09 August)

Event Time Altitude Azimuth Distance (km) Brightness Sun altitude
Rises 02:54:33 0° 209° (SSW) 3,311 7.7 -8.5°
Reaches altitude 10° 02:57:47 10° 230° (SW) 2,388 7.2 -9.0°
Maximum altitude 03:01:00 16° 268° (W) 1,988 7.4 -9.5°
Drops below altitude 10° 03:04:15 10° 306° (NW) 2,402 8.7 -10.0°
Sets 03:07:32 0° 327° (NNW) 3,341 9.5 -10.5°
